Vero Beach, FL

11:56 AM EDT on September 23, 2017 (GMT -0400)
Vero Beach Municipal

Weather History for KVRB - March, 2013

Change the Weather History Date:

Wednesday, March 13, 2013

  Actual Average Record
Temperature  
Mean Temperature 61 °F 67 °F  
Max Temperature 73 °F 77 °F 89 °F (2003)
Min Temperature 48 °F 57 °F 41 °F (1959)
Degree Days  
Heating Degree Days 4 2  
Month to date heating degree days 88 31  
Since 1 July heating degree days 316 416  
Cooling Degree Days 0 4  
Month to date cooling degree days 10 52  
Year to date cooling degree days 245 191  
Growing Degree Days 10 (Base 50)    
Moisture  
Dew Point 49 °F    
Average Humidity 62    
Maximum Humidity 89    
Minimum Humidity 35    
Precipitation  
Precipitation 0.00 in 0.13 in 2.09 in (1993)
Month to date precipitation 0.03 1.60  
Year to date precipitation 2.58 6.77  
Sea Level Pressure  
Sea Level Pressure 30.09 in    
Wind  
Wind Speed 10 mph (NNW)    
Max Wind Speed 21 mph    
Max Gust Speed 26 mph    
Visibility 10 miles    
Events      
T = Trace of Precipitation, MM = Missing Value Source: NWS Daily Summary

Daily Weather History Graph

Daily Weather History Graph

Search for Another Location

Airport or City:

Trip Planner

Search our weather history database for the weather conditions in past years. The results will help you decide how hot, cold, wet, or windy it might be!

Date:

Astronomy

Mar. 13, 2013 Rise Set
Actual Time 7:33 AM EDT 7:29 PM EDT
Civil Twilight 7:09 AM EDT 7:52 PM EDT
Nautical Twilight 6:42 AM EDT 8:19 PM EDT
Astronomical Twilight 6:15 AM EDT 8:47 PM EDT
Moon 8:25 AM EDT (3/13) 9:28 PM EDT (3/13)
Length of Visible Light 12h 42m
Length of Day
11h 56m
Waxing Crescent, 4% of the Moon is Illuminated
Mar 13
Waxing Crescent
Mar 19
First Quarter
Mar 27
Full
Apr 3
Last Quarter
Apr 10
New

Hourly Weather History & Observations

Time (EDT) Temp. Dew Point Humidity Pressure Visibility Wind Dir Wind Speed Gust Speed Precip Events Conditions
12:53 AM 62.1 °F 57.0 °F 84% 30.01 in 10.0 mi WNW 11.5 mph - N/A   Partly Cloudy
1:53 AM 59.0 °F 55.0 °F 87% 30.01 in 10.0 mi WNW 9.2 mph - N/A   Clear
3:53 AM 57.0 °F 54.0 °F 89% 30.01 in 10.0 mi NW 9.2 mph - N/A   Clear
4:53 AM 55.0 °F 52.0 °F 89% 30.02 in 10.0 mi NW 5.8 mph - N/A   Clear
5:53 AM 54.0 °F 50.0 °F 86% 30.03 in 10.0 mi NW 6.9 mph - N/A   Clear
6:53 AM 53.1 °F 50.0 °F 89% 30.06 in 10.0 mi NW 8.1 mph - N/A   Clear
7:53 AM 52.0 °F 48.0 °F 86% 30.07 in 10.0 mi NW 10.4 mph - N/A   Clear
8:53 AM 55.0 °F 48.0 °F 77% 30.09 in 10.0 mi NW 9.2 mph - N/A   Clear
9:53 AM 63.0 °F 50.0 °F 63% 30.12 in 10.0 mi NNW 10.4 mph - N/A   Clear
10:53 AM 66.0 °F 48.9 °F 54% 30.13 in 10.0 mi North 16.1 mph - N/A   Clear
11:53 AM 69.1 °F 50.0 °F 51% 30.14 in 10.0 mi North 15.0 mph 24.2 mph N/A   Clear
12:53 PM 70.0 °F 48.9 °F 47% 30.14 in 10.0 mi North 18.4 mph 23.0 mph N/A   Clear
1:53 PM 71.1 °F 46.0 °F 41% 30.12 in 10.0 mi North 16.1 mph 26.5 mph N/A   Clear
2:53 PM 72.0 °F 48.9 °F 44% 30.11 in 10.0 mi North 13.8 mph - N/A   Clear
3:53 PM 71.1 °F 42.1 °F 35% 30.09 in 10.0 mi North 17.3 mph 24.2 mph N/A   Clear
4:53 PM 69.1 °F 46.0 °F 44% 30.08 in 10.0 mi NNE 18.4 mph - N/A   Clear
5:53 PM 68.0 °F 46.9 °F 47% 30.08 in 10.0 mi North 13.8 mph - N/A   Clear
6:53 PM 66.0 °F 46.9 °F 50% 30.08 in 10.0 mi NNE 10.4 mph 17.3 mph N/A   Clear
7:53 PM 60.1 °F 46.9 °F 62% 30.09 in 10.0 mi North 3.5 mph - N/A   Clear
8:53 PM 55.9 °F 48.0 °F 75% 30.11 in 10.0 mi Calm Calm - N/A   Clear
9:53 PM 50.0 °F 45.0 °F 83% 30.12 in 10.0 mi Calm Calm - N/A   Clear
10:53 PM 48.9 °F 45.0 °F 86% 30.14 in 10.0 mi Calm Calm - N/A   Clear
11:53 PM 50.0 °F 45.0 °F 83% 30.15 in 10.0 mi NW 3.5 mph - N/A   Clear